[[{"header":{"parameterUnit":"m.s-1","parameterCategory":1,"la1":30.2991,"la2":30.254,"lo1":-89.0895,"lo2":-89.0444,"dy":0.0017,"dx":0.0017,"nx":28,"ny":28,"refTime":"2023-06-25T21:00:00:Z","depth":0,"parameterNumber":2,"parameterNumberName":"U-component_of_WINDS"},"data":[0,0,0,0,0,0,0,0,0,0,0,0,0,0,0,0,0,0,0,0,0,0,0,0,0,0,0,0,0,0,0,0,0,0,0,0,0,0,0,0,0,0,0,0,0,0,0,0,0,0,0,0,0,0,0,0,0,0,-5.6448,-5.6449,0,-5.6556,-5.6557,-5.6558,-5.6564,-5.6563,-5.6561,-5.656,-5.6661,-5.6664,-5.6668,0,0,0,0,0,0,0,0,0,0,0,0,0,-5.6238,-5.6242,-5.6448,-5.6449,-5.645,-5.6556,-5.6557,-5.6559,-5.6564,-5.6562,-5.6561,-5.656,-5.6659,-5.6664,-5.6669,0,0,0,0,0,0,0,0,0,0,0,0,0,-5.6336,-5.6243,-5.6447,-5.6466,-5.6469,-5.6556,-5.6557,-5.6559,-5.6564,-5.6562,-5.6561,-5.6559,-5.6658,-5.6664,-5.6669,-5.6742,0,0,-5.6687,-5.6689,0,0,0,0,0,0,0,0,-5.633,-5.6343,-5.6462,-5.6465,-5.6468,-5.6545,-5.652,-5.662,-5.6565,-5.6528,-5.656,-5.6558,-5.6623,-5.6631,-5.6655,-5.6746,-5.6751,-5.6687,-5.6691,-5.6693,-5.6695,0,0,0,0,0,0,0,-5.6323,-5.6339,-5.649,-5.6464,-5.6467,-5.6466,-5.6478,-5.6539,-5.6584,-5.6531,-5.6531,-5.6545,-5.6624,-5.665,-5.6658,-5.6752,-5.6687,-5.6692,-5.6696,-5.6698,-5.691,-5.6913,0,0,0,0,0,0,-5.6314,-5.6333,-5.6487,-5.6493,-5.6394,-5.6472,-5.6485,-5.6522,-5.6583,-5.6591,-5.6546,-5.6545,-5.6641,-5.6651,-5.6661,-5.6752,-5.6693,-5.6699,-5.6702,-5.6908,-5.6911,-5.6913,0,0,0,0,0,0,-5.631,-5.6328,-5.6482,-5.6414,-5.6433,-5.6477,-5.6519,-5.6525,-5.6551,-5.6595,-5.6602,-5.6565,-5.664,-5.6653,-5.6723,-5.6755,-5.6701,-5.6706,-5.6906,-5.6909,-5.6912,-5.6932,0,0,0,0,0,0,-5.6304,-5.6326,-5.6356,-5.6414,-5.6437,-5.6544,-5.6521,-5.6528,-5.6562,-5.6561,-5.6615,-5.6622,-5.664,-5.6714,-5.6729,-5.6762,-5.6711,-5.6903,-5.6907,-5.6911,-5.6928,-5.6935,-5.6941,0,0,0,0,0,-5.6296,-5.6354,-5.6357,-5.6376,-5.6475,-5.6546,-5.6559,-5.6581,-5.6564,-5.6593,-5.6623,-5.662,-5.675,-5.6722,-5.6738,-5.6773,-5.6901,-5.6906,-5.6911,-5.6925,-5.6934,-5.6941,0,0,0,0,0,0,-5.6292,-5.6362,-5.6366,-5.6445,-5.649,-5.6547,-5.6584,-5.6589,-5.6637,-5.6633,-5.6656,-5.6668,-5.6738,-5.6762,-5.673,-5.6848,-5.6823,-5.6832,-5.6829,-5.6837,-5.6844,-5.6835,-5.6716,0,0,0,0,0,-5.6302,-5.6357,-5.6413,-5.6477,-5.65,-5.6539,-5.657,-5.6585,-5.663,-5.6648,-5.6682,-5.6725,-5.6776,-5.6808,-5.6857,-5.6933,-5.6945,-5.6966,-5.6972,-5.6977,-5.6983,-5.7027,-5.7037,-5.693,-5.693,-5.6929,0,0,-5.6319,-5.6364,-5.6397,-5.6478,-5.6514,-5.6569,-5.6554,-5.6611,-5.6651,-5.6656,-5.6725,-5.6752,-5.6801,-5.6875,-5.6909,-5.6897,-5.7016,-5.6984,-5.6987,-5.6991,-5.7033,-5.7043,-5.7052,-5.6933,-5.6932,-5.6932,0,0,-5.638,-5.642,-5.6479,-5.6518,-5.6576,-5.6602,-5.6616,-5.6673,-5.6693,-5.6764,-5.6769,-5.6816,-5.6902,-5.6938,-5.6967,-5.7047,-5.7046,-5.7062,-5.7094,-5.7137,-5.7145,-5.7153,-5.7181,-5.7191,-5.7068,-5.7068,-5.7068,0,-5.6393,-5.6479,-5.6507,-5.6567,-5.6602,-5.6615,-5.6674,-5.6709,-5.6778,-5.6801,-5.6789,-5.69,-5.6934,-5.7017,-5.7037,-5.706,-5.7076,-5.7054,-5.7142,-5.715,-5.7157,-5.7185,-5.7195,-5.707,-5.707,-5.707,-5.7069,0,-5.6493,-5.6552,-5.6593,-5.6665,-5.6705,-5.6763,-5.6799,-5.6836,-5.6848,-5.6875,-5.6947,-5.6989,-5.7048,-5.7069,-5.7079,-5.7155,-5.7146,-5.7138,-5.7113,-5.7169,-5.7195,-5.7205,-5.7072,-5.7072,-5.7071,-5.7071,0,0,-5.6549,-5.6642,-5.6656,-5.669,-5.6757,-5.6802,-5.6861,-5.6923,-5.6955,-5.7003,-5.7052,-5.7128,-5.7122,-5.7156,-5.717,-5.7208,-5.7269,-5.7195,-5.7196,-5.7207,-5.7355,-5.736,-5.7372,-5.727,-5.7272,-5.7274,-5.7351,0,-5.6617,-5.6727,-5.6757,-5.6849,-5.6904,-5.6919,-5.6971,-5.7017,-5.7045,-5.7093,-5.7122,-5.7176,-5.7164,-5.7185,-5.7223,-5.7253,-5.7299,-5.7248,-5.7314,-5.7316,-5.73,-5.7385,-5.739,-5.746,-5.7361,-5.7363,-5.7364,0,-5.6709,-5.6765,-5.6864,-5.6928,-5.6952,-5.6999,-5.706,-5.7107,-5.7159,-5.7177,-5.7217,-5.723,-5.7291,-5.7265,-5.7349,-5.7315,-5.7344,-5.7363,-5.7367,-5.7372,-5.7342,-5.7391,-5.7483,-5.7493,-5.738,-5.7379,-5.7378,0,-5.6741,-5.6841,-5.6914,-5.6942,-5.7018,-5.7051,-5.7083,-5.7134,-5.7171,-5.7223,-5.7247,-5.7304,-5.7335,-5.7378,-5.7405,-5.7384,-5.7487,-5.7464,-5.7502,-5.7501,-5.752,-5.7518,-5.7616,-5.7542,-5.7542,-5.7541,-5.7541,0,-5.6812,-5.6872,-5.693,-5.6974,-5.7042,-5.7076,-5.7141,-5.7173,-5.7219,-5.7269,-5.7285,-5.733,-5.7364,-5.7414,-5.7436,-5.7502,-5.7516,-5.753,-5.7535,-5.7528,-5.7527,-5.7546,-5.7541,-5.7544,-5.7544,-5.7543,-5.7543,0,-5.6857,-5.6898,-5.6979,-5.7047,-5.7065,-5.7112,-5.7168,-5.7211,-5.7242,-5.7305,-5.7321,-5.7368,-5.7428,-5.7461,-5.7534,-5.7549,-5.7623,-5.7626,-5.7607,-5.7608,-5.7644,-5.764,-5.7757,-5.7774,-5.7689,-5.769,-5.769,0,-5.6899,-5.6946,-5.7021,-5.7058,-5.7093,-5.7151,-5.719,-5.7226,-5.7265,-5.7331,-5.7366,-5.7428,-5.748,-5.7575,-5.7613,-5.767,-5.7673,-5.7711,-5.7681,-5.7674,-5.7673,-5.7669,-5.7674,-5.7714,-5.7715,-5.7716,-5.7716,0,-5.6969,-5.6988,-5.7046,-5.7112,-5.716,-5.7212,-5.7264,-5.7292,-5.7336,-5.738,-5.7444,-5.7485,-5.7564,-5.7624,-5.7686,-5.7716,-5.7723,-5.7726,-5.7738,-5.773,-5.7717,-5.7724,-5.7619,-5.7722,-5.7722,-5.7721,-5.7721,-5.7721,-5.7013,-5.7057,-5.7118,-5.7182,-5.7227,-5.7276,-5.7321,-5.7359,-5.7415,-5.7485,-5.7502,-5.757,-5.7623,-5.7707,-5.774,-5.7792,-5.7784,-5.7801,-5.7805,-5.7808,-5.7809,-5.7711,-5.7803,-5.7803,-5.7802,-5.7802,-5.7802,0,-5.7083,-5.7125,-5.7184,-5.7259,-5.731,-5.7319,-5.7377,-5.7418,-5.7479,-5.753,-5.7583,-5.7657,-5.7718,-5.7763,-5.7825,-5.7858,-5.7863,-5.7872,-5.7869,-5.7876,-5.7813,-5.7796,-5.7868,-5.7868,-5.7868,-5.7868,-5.7868,-5.7868,-5.7125,-5.7201,-5.7229,-5.7326,-5.7366,-5.7436,-5.7469,-5.7514,-5.7556,-5.764,-5.7693,-5.7724,-5.7773,-5.7839,-5.7894,-5.7906,-5.7927,-5.7937,-5.7948,-5.7888,-5.788,-5.7874,-5.7858,-5.7942,-5.7942,-5.8008,-5.8008,-5.8009]},{"header":{"parameterUnit":"m.s-1","parameterCategory":1,"la1":30.2991,"la2":30.254,"lo1":-89.0895,"lo2":-89.0444,"dy":0.0017,"dx":0.0017,"nx":28,"ny":28,"refTime":"2023-06-25T21:00:00:Z","depth":0,"parameterNumber":3,"parameterNumberName":"V-component_of_WINDS"},"data":[0,0,0,0,0,0,0,0,0,0,0,0,0,0,0,0,0,0,0,0,0,0,0,0,0,0,0,0,0,0,0,0,0,0,0,0,0,0,0,0,0,0,0,0,0,0,0,0,0,0,0,0,0,0,0,0,0,0,-2.7274,-2.7278,0,-2.7681,-2.7686,-2.7691,-2.7862,-2.7862,-2.7861,-2.786,-2.828,-2.8292,-2.8303,0,0,0,0,0,0,0,0,0,0,0,0,0,-2.6643,-2.6653,-2.7273,-2.7278,-2.7283,-2.7681,-2.7686,-2.7692,-2.7862,-2.7861,-2.7861,-2.786,-2.8276,-2.829,-2.8304,0,0,0,0,0,0,0,0,0,0,0,0,0,-2.697,-2.6657,-2.7272,-2.7416,-2.7433,-2.7679,-2.7686,-2.7693,-2.7863,-2.7861,-2.786,-2.7859,-2.8271,-2.8289,-2.8306,-2.844,0,0,-2.8361,-2.8369,0,0,0,0,0,0,0,0,-2.6951,-2.6993,-2.739,-2.7407,-2.7426,-2.772,-2.7618,-2.7944,-2.7863,-2.77,-2.786,-2.7859,-2.8095,-2.8127,-2.8206,-2.846,-2.8478,-2.8363,-2.8373,-2.8381,-2.8386,0,0,0,0,0,0,0,-2.6928,-2.6976,-2.7435,-2.7396,-2.7418,-2.7461,-2.7506,-2.7681,-2.7899,-2.7714,-2.7727,-2.7773,-2.8104,-2.8189,-2.8217,-2.8484,-2.8362,-2.8378,-2.8389,-2.8396,-2.8867,-2.8868,0,0,0,0,0,0,-2.6882,-2.6956,-2.7422,-2.7447,-2.7181,-2.7473,-2.7524,-2.7627,-2.7898,-2.7938,-2.7774,-2.778,-2.8159,-2.8196,-2.8233,-2.8407,-2.8381,-2.8398,-2.8408,-2.8865,-2.8867,-2.8869,0,0,0,0,0,0,-2.6867,-2.6922,-2.7406,-2.7206,-2.727,-2.7485,-2.76,-2.7635,-2.772,-2.7943,-2.7983,-2.782,-2.8159,-2.8208,-2.8387,-2.8424,-2.8406,-2.8422,-2.8863,-2.8866,-2.8868,-2.8756,0,0,0,0,0,0,-2.6849,-2.6915,-2.6969,-2.7205,-2.728,-2.7552,-2.7602,-2.7644,-2.775,-2.7762,-2.7996,-2.8034,-2.8162,-2.8359,-2.8405,-2.8448,-2.8436,-2.8861,-2.8864,-2.8867,-2.8758,-2.8755,-2.8752,0,0,0,0,0,-2.6825,-2.6922,-2.6971,-2.7026,-2.7351,-2.7554,-2.7597,-2.7742,-2.7752,-2.7808,-2.795,-2.8027,-2.8412,-2.8376,-2.8429,-2.8478,-2.8859,-2.8863,-2.8867,-2.8759,-2.8755,-2.8752,0,0,0,0,0,0,-2.6686,-2.6956,-2.7013,-2.7189,-2.7347,-2.7583,-2.7658,-2.7734,-2.7893,-2.7898,-2.8071,-2.8122,-2.8286,-2.8401,-2.8356,-2.8621,-2.8642,-2.8656,-2.8541,-2.854,-2.8537,-2.8507,-2.8451,0,0,0,0,0,-2.6675,-2.6817,-2.7045,-2.7178,-2.7255,-2.7441,-2.7535,-2.7632,-2.7804,-2.7872,-2.8029,-2.8192,-2.835,-2.8451,-2.8609,-2.8774,-2.8827,-2.8834,-2.8831,-2.8827,-2.8839,-2.8934,-2.8939,-2.8882,-2.8882,-2.8882,0,0,-2.6656,-2.682,-2.69,-2.7154,-2.7289,-2.7432,-2.7497,-2.7646,-2.7754,-2.7896,-2.8075,-2.8193,-2.8388,-2.856,-2.8644,-2.866,-2.8866,-2.8833,-2.8828,-2.8842,-2.8938,-2.8943,-2.8948,-2.8885,-2.8884,-2.8884,0,0,-2.6693,-2.6831,-2.6958,-2.709,-2.7291,-2.7414,-2.7443,-2.7668,-2.7752,-2.7934,-2.8042,-2.8172,-2.8441,-2.8575,-2.8678,-2.8761,-2.8837,-2.8807,-2.8795,-2.8885,-2.8889,-2.8894,-2.8924,-2.8933,-2.8817,-2.8817,-2.8817,0,-2.6644,-2.6864,-2.7013,-2.7156,-2.7264,-2.7396,-2.7524,-2.7645,-2.7888,-2.796,-2.7974,-2.8312,-2.8452,-2.8657,-2.8677,-2.8756,-2.8795,-2.8783,-2.8876,-2.8883,-2.889,-2.892,-2.8931,-2.8812,-2.8813,-2.8813,-2.8814,0,-2.6792,-2.6943,-2.702,-2.7249,-2.7366,-2.7501,-2.767,-2.777,-2.7855,-2.7976,-2.8159,-2.8331,-2.8525,-2.858,-2.8666,-2.8797,-2.88,-2.8843,-2.8867,-2.8887,-2.8919,-2.8932,-2.8805,-2.8807,-2.8808,-2.881,0,0,-2.6758,-2.7065,-2.7091,-2.7196,-2.7426,-2.7545,-2.7684,-2.7873,-2.7955,-2.8117,-2.8239,-2.8461,-2.8501,-2.8617,-2.8719,-2.8797,-2.8852,-2.8831,-2.8838,-2.8829,-2.9006,-2.8974,-2.8985,-2.8902,-2.8905,-2.8907,-2.899,0,-2.6827,-2.7083,-2.7219,-2.7418,-2.7558,-2.7683,-2.7804,-2.7958,-2.8073,-2.8209,-2.8338,-2.8492,-2.8533,-2.8604,-2.8687,-2.8827,-2.889,-2.8823,-2.9018,-2.9023,-2.8967,-2.9002,-2.8969,-2.9039,-2.9003,-2.9006,-2.9007,0,-2.6944,-2.7102,-2.7313,-2.7525,-2.7589,-2.7695,-2.7878,-2.8006,-2.8182,-2.8261,-2.8388,-2.8488,-2.8639,-2.8649,-2.886,-2.8811,-2.8898,-2.8978,-2.8984,-2.901,-2.9018,-2.9029,-2.9065,-2.9075,-2.9028,-2.9026,-2.9025,0,-2.6897,-2.7163,-2.7324,-2.7409,-2.766,-2.7732,-2.784,-2.8015,-2.8119,-2.8278,-2.8347,-2.8521,-2.8617,-2.875,-2.8893,-2.8887,-2.909,-2.9112,-2.916,-2.9156,-2.92,-2.9195,-2.9251,-2.9252,-2.9252,-2.9251,-2.9251,0,-2.6962,-2.7087,-2.7306,-2.7405,-2.7548,-2.7702,-2.7839,-2.7957,-2.811,-2.8234,-2.8352,-2.8466,-2.8648,-2.8784,-2.8897,-2.9054,-2.9096,-2.9164,-2.9193,-2.9155,-2.9146,-2.9216,-2.9216,-2.9255,-2.9254,-2.9253,-2.9253,0,-2.6937,-2.7088,-2.7272,-2.7492,-2.7551,-2.7646,-2.7836,-2.7936,-2.8056,-2.8211,-2.8256,-2.8445,-2.861,-2.8766,-2.8988,-2.9063,-2.9222,-2.9258,-2.9162,-2.9178,-2.9218,-2.9212,-2.9322,-2.9344,-2.9327,-2.9327,-2.9327,0,-2.6969,-2.7067,-2.7298,-2.7388,-2.7493,-2.7638,-2.7744,-2.7898,-2.8004,-2.8209,-2.8285,-2.8459,-2.8607,-2.8866,-2.9023,-2.9192,-2.9235,-2.9261,-2.9262,-2.9219,-2.9237,-2.923,-2.924,-2.9259,-2.9259,-2.9258,-2.9258,0,-2.701,-2.7079,-2.7227,-2.74,-2.7522,-2.7666,-2.7814,-2.7881,-2.8064,-2.8176,-2.8346,-2.846,-2.8685,-2.8856,-2.9043,-2.9155,-2.9237,-2.9256,-2.9276,-2.9239,-2.918,-2.9213,-2.9156,-2.9254,-2.9254,-2.9254,-2.9255,-2.9255,-2.7016,-2.7109,-2.7285,-2.7444,-2.7571,-2.7705,-2.781,-2.7941,-2.8086,-2.828,-2.8362,-2.8534,-2.8706,-2.8965,-2.9075,-2.9212,-2.9231,-2.926,-2.9268,-2.9273,-2.9265,-2.9155,-2.9246,-2.9247,-2.9247,-2.9247,-2.9248,0,-2.7064,-2.7183,-2.7328,-2.7529,-2.7654,-2.7718,-2.7884,-2.7985,-2.8134,-2.8287,-2.8428,-2.8623,-2.8789,-2.8957,-2.9132,-2.9209,-2.9251,-2.925,-2.9247,-2.9271,-2.9239,-2.9204,-2.9213,-2.9213,-2.9213,-2.9213,-2.9213,-2.9213,-2.7104,-2.7264,-2.7353,-2.7577,-2.7695,-2.7863,-2.7952,-2.8077,-2.8199,-2.841,-2.8548,-2.8656,-2.8815,-2.9002,-2.9156,-2.9201,-2.9261,-2.9249,-2.9305,-2.9272,-2.9273,-2.9275,-2.9243,-2.926,-2.926,-2.9327,-2.9327,-2.9328]}]]